{"data":{"norad_id":53026,"epoch":"2026-09-20T00:42:42.267168Z","epoch_age_seconds":110077,"freshness":"FRESH","line1":"1 53026U 22076AS  26263.02965587  .00000046  00000+0  13263-4 0  9992","line2":"2 53026  53.1568 276.4205 0001449  89.4614 270.6554 15.31695610232533","mean_motion":15.3169561,"eccentricity":0.0001449,"inclination_deg":53.1568,"raan_deg":276.4205,"arg_perigee_deg":89.4614,"mean_anomaly_deg":270.6554,"bstar":1.3263e-5,"rev_number":23253,"period_min":94.01345741273,"perigee_km":469.76067744564,"apogee_km":471.74548579129,"semimajor_km":6848.8900816185,"source":"CELESTRAK","updated_at":"2026-09-20T09:00:40.147025Z"}}